Tracking 18186 objects as of 29-March-2017
HD Live streaming from Space Station
objects crossing your sky now

RUBIN 2

Track RUBIN 2 now!
10-day predictions
RUBIN 2 is classified as:


NORAD ID: 27605
Int'l Code: 2002-058A
Perigee: 628.0 km
Apogee: 677.3 km
Inclination: 64.6 °
Period: 97.6 minutes
Semi major axis: 7023 km
RCS: 0.234 m2 (medium)
Launch date: December 20, 2002
Source: Germany (GER)
Launch site: TYURATAM MISSILE AND SPACE COMPLEX (TTMTR)
Uplink (MHz): 435.275
Downlink (MHz): 145.825
Beacon (MHz): 145.825
Mode: U/1200 D/9600 MSK
Call sign:
Status: Inactive

Your satellite tracking list
Your tracking list is empty





NASA's NSSDC Master Catalog

Two Line Element Set (TLE):
1 27605U 02058A   17087.94349072 +.00000045 +00000-0 +27201-4 0  9991
2 27605 064.5574 352.8683 0035140 135.2828 225.1118 14.74889056767585
Source of the keplerian elements: AFSPC